GW3247 Weather Reports


Display with metric or nautical units.
time (UTC)temp
F
wind
direction
speed
MPH
gust
MPH
rain 1hr
in
rain 24hr
in
rain mn
in
humidity
%
barometer
mb
20260504190009 53 7 9.0 12.0 0.00 0.33 0.17 75 1011.5
20260504184511 53 341 9.0 13.0 0.00 0.33 0.17 75 1011.3
20260504183007 54 315 11.0 13.0 0.00 0.33 0.17 73 1011.3
20260504181506 54 9 10.0 14.0 0.00 0.33 0.17 72 1011.4
20260504180012 55 309 10.0 14.0 0.00 0.33 0.17 70 1011.3
20260504174505 55 318 10.0 19.0 0.00 0.33 0.17 63 1011.1
20260504173012 56 310 12.0 17.0 0.00 0.33 0.17 57 1011.1
20260504171503 56 308 9.0 15.0 0.00 0.33 0.17 57 1011.1
20260504081508 51 327 14.0 19.0 0.00 0.33 0.17 91 1009.1
20260504050125 50 11 5.0 8.0 0.00 0.33 0.17 93 1006.4
20260504044558 50 49 7.0 11.0 0.00 0.33 0.17 93 1006.4
20260504043059 50 24 9.0 12.0 0.00 0.33 0.17 93 1006.2
20260504041550 50 26 9.0 12.0 0.00 0.33 0.17 92 1006.1
20260504040046 52 352 10.0 13.0 0.00 0.33 0.17 91 1006.0
20260504034550 53 250 4.0 10.0 0.00 0.33 0.17 93 1005.8
20260504033045 53 294 1.0 6.0 0.00 0.33 0.17 93 1005.8
20260504031558 53 271 1.0 5.0 0.01 0.33 0.17 94 1005.9
20260504030042 52 228 0.0 3.0 0.01 0.33 0.17 93 1006.0
20260504024542 52 213 1.0 3.0 0.01 0.33 0.17 93 1006.1
20260504023038 52 152 0.0 0.0 0.02 0.33 0.17 93 1006.1
20260504021536 52 152 0.0 0.0 0.02 0.32 0.16 93 1006.2
20260504020040 52 153 0.0 0.0 0.02 0.32 0.16 93 1006.2
20260504014536 52 143 0.0 0.0 0.02 0.32 0.16 93 1006.2
20260504013036 52 86 0.0 2.0 0.02 0.31 0.15 93 1006.3
20260504011533 52 65 2.0 4.0 0.02 0.31 0.14 93 1006.4
20260504010031 52 63 3.0 5.0 0.01 0.30 0.13 93 1006.3
20260504004530 52 66 4.0 5.0 0.01 0.30 0.13 93 1006.4
20260504003027 52 49 3.0 6.0 0.01 0.30 0.13 92 1006.4
20260504001525 52 49 2.0 7.0 0.02 0.28 0.13 92 1006.5
20260504000024 53 53 3.0 7.0 0.04 0.28 0.13 92 1006.6
20260503234526 53 27 5.0 6.0 0.06 0.28 0.13 92 1006.9
20260503233019 53 336 1.0 3.0 0.06 0.28 0.12 92 1007.1
20260503231519 53 221 0.0 2.0 0.08 0.28 0.11 92 1007.1
20260503230016 53 207 0.0 5.0 0.09 0.25 0.09 92 1007.2
20260503224514 53 198 2.0 5.0 0.11 0.24 0.07 91 1007.5
20260503223021 52 163 2.0 4.0 0.13 0.22 0.06 91 1007.7
20260503221510 52 305 1.0 3.0 0.11 0.20 0.03 91 1007.8
20260503220011 52 297 0.0 2.0 0.08 0.17 0.17 91 1008.1
20260503214506 52 179 1.0 5.0 0.05 0.13 0.13 91 1008.0
20260503213006 52 234 1.0 3.0 0.06 0.09 0.09 91 1008.1
20260503211504 52 130 3.0 4.0 0.09 0.09 0.09 90 1007.6
20260503210002 52 92 1.0 3.0 0.09 0.09 0.09 90 1007.8
20260503204621 52 116 2.0 4.0 0.08 0.08 0.08 90 1007.9
20260503203114 52 259 0.0 2.0 0.04 0.04 0.04 90 1009.0
20260503201556 52 216 2.0 3.0 0.00 0.00 0.00 90 1009.0
20260503200055 52 153 0.0 2.0 0.00 0.00 0.00 90 1008.6
20260503194554 52 156 0.0 1.0 0.00 0.00 0.00 90 1008.6
20260503193053 53 91 0.0 1.0 0.00 0.00 0.00 90 1008.8
20260503191602 53 91 0.0 3.0 0.00 0.00 0.00 90 1008.7